Wind_Speed
26 26 25 25 25 26 26 25 25 26 27 27 26 26 26 26 27 27 26 27 28 28 29 31 31 32 32 32 32 32 32 32 32 33 33 33 33 33 33 34 34 35 35 36 36 36 36 36 36 35 34 34 33 33 33 33 34 34 34 35 35 36 36 36 36 36 36 36 36 35 35 35 35 36 36 36 36 36 37 38 39 39 40 40 40 40
26 26 25 24 25 26 27 26 25 25 27 28 28 27 27 27 28 28 27 27 28 29 30 31 31 31 31 31 31 31 31 31 32 32 32 32 32 33 34 35 35 36 36 36 36 35 35 35 35 35 34 33 33 33 33 34 34 35 35 36 36 36 36 37 37 37 36 36 36 36 36 36 36 36 36 36 35 35 35 36 36 37 38 38 38 39
27 26 26 25 25 26 27 27 26 26 27 28 28 28 28 28 28 29 30 30 31 31 30 30 31 30 30 30 30 30 30 30 30 31 32 32 33 34 35 35 36 36 35 35 35 35 34 35 35 34 34 33 34 34 34 35 35 36 36 36 37 37 37 37 37 37 37 37 36 36 36 36 37 37 37 37 36 36 35 35 34 34 35 35 36 37
26 27 27 27 26 26 26 27 27 27 27 27 27 28 28 29 30 31 32 31 31 31 29 29 29 29 29 29 29 29 30 30 31 32 33 33 34 35 35 35 35 35 35 34 34 34 34 34 34 34 34 34 35 35 35 36 36 36 36 37 37 37 37 37 37 37 37 37 37 36 36 36 37 37 37 37 37 37 37 35 34 34 33 33 33 34
26 27 27 27 27 27 26 27 27 28 28 28 27 28 29 30 31 32 31 31 30 29 28 27 27 27 28 28 28 29 30 31 32 33 34 34 34 34 34 34 34 34 34 34 34 34 34 35 35 35 35 35 35 36 36 36 36 36 36 36 36 36 36 36 36 36 37 37 37 37 37 37 37 37 37 37 37 37 38 37 36 35 34 33 33 33
27 27 27 27 28 28 28 28 28 28 28 28 28 28 30 31 31 30 30 29 28 28 27 27 27 27 27 28 29 30 31 32 33 33 33 33 33 33 33 33 33 33 33 34 34 34 35 35 35 36 36 36 36 36 36 36 36 36 36 36 36 36 36 36 36 36 37 37 37 37 37 37 37 37 37 37 37 37 38 38 38 38 37 37 36 35
28 27 26 27 28 28 28 27 27 27 28 29 29 29 29 29 29 29 28 28 27 27 27 27 27 27 28 28 29 30 31 31 32 32 32 31 31 32 32 33 33 33 33 34 34 35 35 35 35 36 36 36 36 36 36 36 35 35 35 35 35 35 35 35 35 36 36 36 36 36 36 36 36 36 36 36 37 37 37 38 38 38 39 39 39 38
29 28 27 27 28 28 28 28 27 27 28 28 29 30 30 30 29 28 28 27 27 27 27 27 28 28 28 28 29 29 30 30 31 31 31 31 31 32 32 33 33 33 34 34 34 35 35 35 35 35 35 36 36 35 35 34 34 34 34 34 34 34 34 34 34 34 34 34 34 34 34 34 35 35 35 35 35 36 36 37 37 37 38 39 39 39
29 29 30 29 28 29 30 30 29 27 26 27 29 31 31 31 30 29 28 27 26 26 27 27 28 28 28 28 28 29 30 30 31 31 31 31 32 32 33 33 34 34 34 34 34 34 34 35 35 35 35 35 35 35 34 34 34 33 33 33 33 33 33 33 33 33 33 33 33 33 33 33 33 34 34 34 34 35 35 35 36 36 37 38 38 39
29 30 30 29 28 28 28 29 28 28 27 27 28 29 29 29 29 29 28 27 27 27 26 27 27 28 29 29 29 29 30 31 31 31 31 31 31 32 32 33 33 33 33 33 33 34 34 34 34 34 34 34 34 34 34 34 34 34 33 33 33 33 32 32 32 32 32 32 32 32 32 33 33 33 33 33 34 34 34 35 35 35 36 36 37 37
29 29 29 28 27 26 26 27 28 28 28 28 28 28 27 26 27 28 29 29 29 28 27 27 27 28 29 30 31 31 31 31 31 31 30 29 29 29 30 31 31 32 32 33 33 34 34 34 34 34 34 34 34 34 34 33 33 33 33 33 33 32 32 32 31 31 31 31 31 31 32 32 32 32 33 33 33 33 34 34 34 35 35 35 36 36
27 26 26 26 26 26 26 28 29 29 29 28 28 28 26 25 25 26 27 29 29 29 29 29 29 29 29 30 31 31 31 30 30 30 29 28 27 27 28 30 31 32 32 32 33 33 33 33 33 33 33 33 33 33 33 32 32 32 32 32 32 31 31 30 30 30 30 31 31 31 31 32 32 32 33 33 33 33 34 34 34 35 35 35 35 36
25 25 26 27 28 28 27 29 29 29 28 27 27 27 26 26 25 26 27 28 29 29 30 31 31 31 30 29 29 29 30 30 30 30 29 27 27 27 29 30 31 31 31 32 33 33 33 33 33 33 33 33 32 32 32 32 31 31 31 31 31 30 30 30 30 31 31 32 32 32 33 33 33 33 33 33 34 34 34 34 35 35 35 36 36 36
26 26 28 29 29 29 29 29 29 29 28 27 26 26 26 26 26 26 26 28 29 30 30 31 32 32 31 28 27 27 27 28 29 29 29 28 27 28 30 31 32 32 32 32 33 33 33 32 32 33 33 32 32 31 31 31 30 31 31 31 31 31 31 31 32 32 33 33 33 33 33 33 33 34 34 34 34 34 35 35 35 35 36 36 36 36
27 29 30 31 31 30 30 29 29 28 27 26 26 26 26 26 26 26 27 29 30 31 31 32 32 32 29 27 25 25 25 26 28 29 29 29 29 29 31 32 33 33 33 32 32 33 33 32 32 32 32 32 31 31 30 30 31 31 32 32 32 32 32 33 33 33 33 33 33 33 33 33 33 33 34 34 34 35 35 35 35 36 36 36 36 37
29 30 31 31 31 30 29 27 27 26 26 26 25 25 25 26 26 27 28 29 31 32 31 31 31 31 30 28 25 24 24 26 28 30 31 32 31 31 31 32 33 34 33 32 32 32 32 32 31 31 31 31 31 30 30 31 32 33 34 34 34 33 33 33 33 33 33 33 33 33 33 33 33 33 33 34 34 35 35 35 36 36 36 36 36 37
30 30 30 30 29 29 27 26 25 25 25 25 25 25 26 27 28 30 30 31 31 30 30 30 30 31 31 30 28 25 25 26 28 31 32 33 33 32 31 31 32 33 33 32 31 31 31 31 31 31 31 31 31 31 32 33 33 34 34 34 33 33 33 32 32 32 32 33 33 33 33 33 33 33 34 34 35 35 35 36 36 36 37 37 37 37
29 29 28 28 27 27 25 24 24 24 25 25 26 26 27 29 30 30 31 30 30 29 29 29 29 29 30 31 30 29 27 28 30 32 33 34 34 33 31 30 31 32 32 31 30 30 30 30 30 31 32 32 33 33 34 34 34 34 34 33 33 33 33 33 33 33 33 33 33 33 33 33 34 34 34 34 35 35 35 36 37 37 37 37 38 38
28 27 26 25 25 25 25 25 25 25 25 26 28 29 29 31 31 30 30 29 29 29 29 29 30 30 29 30 31 32 30 30 31 32 34 35 34 32 30 29 29 30 31 31 30 30 29 30 31 32 33 34 34 34 34 34 34 33 34 34 34 33 33 33 32 32 32 32 32 33 33 33 33 34 34 34 35 35 35 36 36 37 37 38 38 38
26 25 24 24 25 25 25 25 25 25 26 28 29 31 32 32 31 30 29 29 29 29 30 30 30 30 30 31 33 34 33 33 33 33 34 33 33 31 29 27 28 29 31 31 30 30 30 31 32 33 34 34 34 34 34 34 34 34 34 34 33 33 33 32 32 32 32 32 32 32 32 33 33 33 33 34 34 34 35 35 36 36 37 37 38 38
26 25 24 25 25 26 26 27 27 28 28 30 31 32 32 32 31 30 30 31 31 30 30 30 30 30 31 32 33 35 34 33 33 32 31 31 31 29 27 27 27 29 31 31 31 30 30 31 32 33 33 34 34 34 34 35 35 34 34 33 33 33 33 32 32 31 31 31 31 31 31 32 32 32 32 33 33 34 34 35 35 36 36 37 37 38
25 26 25 25 26 27 29 30 30 30 30 31 31 31 31 32 32 32 32 32 32 32 31 30 30 31 32 33 34 34 33 31 30 29 29 29 30 30 28 27 28 29 30 31 31 31 31 31 32 33 34 35 35 35 35 35 34 34 33 33 32 32 31 31 31 31 31 31 30 31 30 31 31 31 32 32 33 34 34 35 35 36 36 37 37 38
25 27 27 27 27 28 30 31 32 32 31 31 31 31 32 33 33 32 32 31 31 31 32 32 32 32 32 32 33 32 30 27 26 26 27 28 30 31 29 28 28 28 30 31 31 31 31 32 32 33 34 35 36 35 35 34 33 32 32 31 31 30 30 30 30 30 30 30 30 31 30 31 31 32 32 33 34 34 35 35 36 36 37 37 38 38
26 27 27 27 28 30 31 32 32 32 32 32 33 34 34 33 32 31 30 30 30 31 32 32 31 30 29 29 30 29 28 25 24 24 25 27 29 29 29 28 28 30 31 32 31 31 31 32 33 34 35 35 35 35 34 33 32 31 31 30 30 30 30 30 30 30 30 30 30 30 30 30 31 31 32 32 33 34 34 35 36 37 37 38 39 39
26 27 27 28 29 30 31 31 32 32 33 34 33 33 31 30 29 28 28 28 29 29 28 28 28 27 27 27 27 27 26 24 22 22 24 27 29 29 29 28 28 30 32 33 32 31 32 34 35 35 35 35 34 34 33 32 32 31 31 31 30 30 30 30 31 31 31 30 30 30 30 29 29 30 30 30 31 32 33 34 35 36 37 37 38 39
26 26 27 29 30 31 32 33 34 34 33 32 30 28 27 26 26 26 26 26 26 25 25 25 26 26 26 26 26 26 26 25 23 23 24 26 28 29 29 28 27 29 32 33 33 33 33 34 35 34 34 33 33 33 33 32 32 32 31 31 30 30 30 30 30 30 30 30 30 30 30 30 30 30 30 30 31 31 32 33 33 34 35 36 37 38
26 27 29 30 31 32 33 34 34 32 30 27 25 24 23 23 24 25 25 25 24 24 25 25 25 26 26 25 25 26 27 27 25 24 23 24 26 27 28 28 28 29 32 33 33 33 33 33 34 33 33 32 32 32 32 32 32 32 32 31 31 31 30 30 30 29 29 29 30 30 30 30 31 31 31 31 31 32 32 33 33 34 35 35 36 38
27 28 29 31 32 33 33 32 31 28 26 24 22 20 20 20 22 24 24 25 25 24 24 24 25 25 25 25 26 27 29 28 26 24 22 23 24 26 28 28 28 29 32 33 34 34 32 31 31 31 31 31 31 31 32 33 33 33 33 32 32 31 31 30 30 30 29 30 30 30 31 31 31 32 32 32 32 32 32 32 33 33 34 35 36 37
28 29 30 31 32 32 31 29 27 24 22 21 19 18 18 19 21 23 24 25 25 24 24 24 25 25 26 26 27 28 29 27 25 22 21 22 25 27 28 28 29 29 31 32 34 34 32 29 27 27 28 29 30 31 32 33 34 34 34 33 33 32 31 31 30 30 30 30 31 31 31 32 32 33 33 32 31 31 31 31 32 32 33 34 35 37
30 31 32 32 31 29 27 24 23 22 21 20 19 19 19 19 21 23 24 24 24 24 24 24 25 26 26 26 26 27 27 26 24 22 23 24 26 28 29 29 29 29 30 30 31 31 32 30 28 26 27 28 29 30 31 32 33 34 34 34 34 33 32 31 31 31 31 31 31 31 32 33 33 33 33 32 32 31 30 30 30 30 31 32 33 34
32 33 32 31 28 25 23 22 21 21 21 20 20 20 20 20 21 22 23 23 23 24 25 25 26 26 26 26 25 24 25 27 27 25 25 26 27 28 29 29 29 29 29 28 27 28 30 32 32 30 29 29 30 31 31 31 32 33 34 34 34 34 32 32 31 32 32 32 32 33 33 33 34 34 34 34 33 31 30 29 29 29 30 31 32 33
32 31 29 27 24 23 22 22 21 21 21 21 21 21 21 21 22 22 22 23 23 24 25 26 27 27 27 26 26 25 27 30 30 29 28 28 29 29 29 29 29 29 29 28 27 27 28 30 33 34 34 32 31 32 32 31 31 32 32 33 34 34 33 32 32 32 33 33 34 34 34 35 35 35 35 35 34 33 31 29 29 28 29 30 31 32
29 27 25 24 23 23 22 21 21 21 21 21 22 22 22 23 23 22 22 23 24 24 24 26 27 28 29 28 28 29 31 32 32 30 29 29 30 30 29 30 30 30 30 29 28 28 28 30 32 35 35 34 33 32 32 31 31 31 31 31 32 34 34 34 34 34 35 35 36 36 36 36 37 37 37 36 35 34 33 31 29 28 28 29 30 32
25 24 23 23 23 23 22 21 21 21 21 22 22 23 23 23 23 23 23 23 24 24 25 26 27 28 29 29 30 31 33 33 32 31 30 30 30 30 31 32 32 32 31 29 28 28 29 30 31 32 34 35 35 34 33 32 31 31 30 30 32 33 35 36 37 37 38 38 38 39 39 39 39 39 39 38 37 36 35 34 32 31 30 30 31 32
23 22 22 22 22 22 22 22 21 22 22 22 23 23 23 23 24 24 24 24 24 25 25 26 27 28 28 30 31 33 34 34 32 31 31 32 33 33 33 32 32 32 32 31 31 30 29 30 31 31 32 33 35 35 33 32 31 31 31 32 33 34 36 37 37 38 38 39 39 39 40 40 40 41 40 40 39 38 37 36 35 34 32 31 31 32
23 23 22 22 22 22 22 22 22 22 23 23 23 24 24 24 25 25 25 25 25 26 26 27 27 28 28 29 31 33 34 34 33 31 31 31 33 34 34 33 33 33 33 32 32 31 31 31 32 33 32 32 33 33 34 33 32 33 34 35 35 36 36 37 37 37 38 38 39 39 40 40 41 41 42 41 41 40 39 38 37 36 35 33 32 31
22 22 22 22 22 22 22 23 23 23 24 25 25 25 26 26 26 26 26 26 26 26 27 27 28 28 29 29 30 32 34 34 33 31 30 30 31 33 34 34 33 33 33 33 33 33 33 33 32 32 32 31 30 31 32 34 35 35 35 35 35 36 37 37 37 37 37 37 38 39 40 40 41 42 42 42 42 42 41 40 39 38 37 36 35 33
22 22 22 22 22 22 23 23 23 23 24 25 26 26 26 27 27 27 27 27 28 27 27 27 28 29 29 30 31 32 32 33 32 30 29 28 29 30 32 33 33 33 33 33 34 34 34 34 33 32 31 31 31 32 34 35 35 35 36 36 36 37 37 37 36 36 36 36 38 39 40 41 41 42 42 43 43 43 42 42 41 40 40 39 38 36
22 22 23 22 22 22 22 23 24 25 25 26 26 26 26 27 27 28 28 28 28 28 27 27 28 29 30 30 30 31 31 31 30 29 28 27 28 28 29 31 32 33 33 33 34 34 34 33 33 32 32 32 34 35 36 35 35 36 37 38 38 38 37 36 35 35 35 36 38 39 40 41 41 42 42 42 42 42 42 42 42 41 41 40 39 38
22 23 23 23 23 23 23 24 25 25 26 26 26 26 26 27 28 28 28 27 27 27 28 28 29 29 30 30 30 30 29 29 28 28 27 27 27 28 29 30 31 32 33 34 34 33 33 33 33 34 34 35 35 35 36 36 37 37 37 37 38 38 38 37 36 36 36 36 37 39 40 41 42 42 42 42 42 42 42 42 42 42 40 40 40 40
23 23 24 24 24 24 24 25 25 25 26 26 27 26 26 26 27 27 28 28 28 28 28 28 29 30 30 30 29 29 28 28 28 27 28 28 28 28 29 30 31 32 33 34 34 34 34 34 34 35 35 36 35 35 37 37 37 37 36 36 37 38 39 38 37 36 35 36 37 39 41 42 42 42 42 42 42 42 43 43 43 42 41 40 39 39
23 24 25 24 24 25 25 26 25 25 25 25 25 25 25 26 26 26 27 27 28 28 29 29 29 30 31 31 30 28 27 27 27 28 28 28 28 28 29 30 31 32 33 34 34 34 34 34 34 34 34 35 35 36 37 38 37 36 35 35 37 38 39 38 36 35 35 37 39 41 41 42 42 42 43 43 44 44 44 44 43 42 41 40 39 38
24 24 24 24 24 25 26 27 26 26 25 25 25 25 25 25 26 26 26 27 27 28 28 29 29 30 32 32 31 29 28 27 27 27 28 28 28 28 29 30 31 32 33 33 34 34 35 34 34 34 34 34 35 35 35 37 37 37 36 35 35 35 35 37 38 38 38 40 41 41 41 41 42 42 43 44 44 45 44 44 43 42 41 40 39 38
24 24 24 25 25 25 26 26 26 25 25 25 25 25 25 25 26 26 26 27 27 28 28 29 30 31 31 31 31 30 29 29 29 28 29 28 28 28 29 30 31 32 32 32 33 34 35 35 35 34 34 34 34 34 35 36 37 37 36 34 33 32 33 35 38 40 41 41 42 42 42 42 42 43 44 44 44 44 44 43 43 42 41 39 38 37
23 24 24 24 25 26 26 25 25 25 25 25 25 26 25 25 25 26 27 27 28 29 29 30 30 30 30 30 30 30 31 31 31 31 31 29 29 28 29 29 30 31 32 32 33 34 34 35 36 36 35 34 34 35 35 36 36 36 35 33 32 33 34 36 37 38 40 41 42 42 42 42 43 44 44 44 44 44 44 43 42 41 40 39 38 37
23 24 24 25 25 25 25 25 25 25 25 25 26 26 26 26 26 26 27 27 28 30 30 30 30 30 29 29 29 30 31 32 33 33 32 32 31 30 30 30 30 31 32 33 33 34 33 34 35 35 35 35 35 34 34 33 33 33 33 33 33 33 35 36 37 38 38 39 40 42 42 42 43 43 43 43 43 43 43 42 41 40 40 39 38 37
25 25 25 25 25 26 26 25 25 25 26 27 28 27 27 27 27 27 27 28 29 29 30 30 29 29 30 30 31 31 31 31 32 32 33 33 33 32 31 31 31 32 32 33 33 33 33 33 32 32 32 33 33 33 32 31 31 31 32 33 33 34 35 36 37 38 38 39 40 41 42 42 42 42 42 43 42 42 41 41 41 40 40 39 39 37
24 25 25 25 25 25 25 25 25 26 26 28 28 28 27 27 28 28 29 29 29 29 29 29 30 30 30 30 30 30 29 30 31 33 33 33 33 33 32 32 32 33 33 33 33 33 32 31 30 29 29 29 30 31 31 30 30 30 31 32 33 34 36 37 38 38 38 38 40 41 41 41 41 41 42 42 42 41 40 41 41 41 41 40 38 37
25 25 25 25 25 25 26 26 26 26 27 27 28 29 28 28 28 29 29 28 28 28 29 29 30 30 30 30 30 30 29 30 31 32 33 33 33 33 33 33 34 34 33 33 32 32 31 30 28 26 25 24 25 27 29 29 30 30 30 31 32 33 35 36 37 38 38 39 40 41 40 39 39 39 40 40 40 40 40 41 42 43 41 40 38 36
25 25 25 24 24 25 26 26 27 27 28 28 29 29 30 30 29 29 28 28 28 28 29 29 29 30 30 30 31 31 30 31 31 32 33 33 33 33 34 35 35 34 32 32 31 31 30 29 27 26 23 21 21 22 24 27 28 29 29 30 31 32 34 35 36 37 37 39 40 40 40 39 38 37 37 37 38 39 40 42 43 43 42 39 37 36
26 26 25 25 25 25 26 26 27 28 28 28 29 30 30 31 30 30 29 28 29 29 29 29 29 29 29 30 30 30 30 31 32 32 33 33 33 34 34 35 35 34 32 31 30 30 29 28 27 27 25 23 20 19 20 23 26 28 29 31 31 32 33 34 35 37 38 39 39 39 39 38 36 35 35 35 36 37 38 41 43 43 41 39 37 35
Wind_Direction
299 301 302 303 303 302 302 303 303 303 303 303 303 303 302 301 301 300 299 299 299 299 299 299 298 298 298 299 298 297 296 296 296 296 296 297 297 297 296 296 296 295 294 294 294 293 293 292 292 291 291 291 290 289 289 288 288 287 287 286 286 286 286 285 285 284 283 282 281 280 279 277 276 275 273 272 270 269 267 267 266 266 266 267 267 267
301 301 301 302 302 302 302 303 303 303 302 303 303 302 302 301 301 301 301 300 299 299 299 299 299 298 297 297 297 296 296 296 296 297 297 298 298 297 296 296 295 295 295 294 294 294 294 294 293 293 293 293 292 291 290 290 289 288 287 286 286 285 285 284 284 283 283 282 281 281 280 279 278 278 277 277 275 272 270 267 266 265 264 265 265 265
302 302 302 303 303 302 302 303 303 303 302 301 301 301 301 301 302 302 303 303 303 302 300 300 300 299 298 297 297 297 297 297 297 298 298 297 297 296 296 295 295 295 295 296 296 295 295 294 294 294 294 293 292 292 290 289 289 288 287 286 285 285 284 284 283 282 281 281 280 280 279 279 278 277 277 278 277 276 274 272 270 267 265 264 264 263
301 301 302 303 302 301 300 301 303 303 302 301 300 301 302 302 303 304 305 305 304 303 300 299 299 298 298 297 298 298 298 298 298 298 298 297 297 296 296 296 296 297 297 297 297 296 295 295 294 294 294 293 292 291 290 289 288 287 287 286 285 285 284 283 283 282 281 280 279 279 278 278 277 276 275 274 274 274 274 274 274 272 270 268 266 264
298 299 300 301 301 301 300 301 301 302 302 302 301 301 303 303 305 306 306 305 303 302 300 300 299 299 299 299 299 299 299 299 298 298 297 297 297 297 297 297 297 297 297 297 297 296 295 295 294 294 293 292 291 291 290 289 288 287 287 286 285 285 284 283 282 281 281 280 279 278 277 276 276 275 275 274 273 272 272 272 273 273 273 273 271 268
297 297 297 298 299 300 300 301 302 303 303 303 303 303 304 305 306 306 304 303 302 301 301 300 300 300 299 299 299 299 299 299 298 298 298 298 298 298 298 298 298 298 297 297 296 296 295 294 294 293 292 292 291 290 290 289 289 288 287 286 286 285 284 282 282 281 280 279 278 277 277 276 275 275 275 274 273 272 271 270 270 271 271 272 271 271
296 295 296 296 297 298 298 300 302 303 304 304 305 306 306 305 305 304 302 302 302 301 301 301 301 301 300 300 300 300 300 299 299 299 299 298 298 298 299 298 298 298 297 297 296 296 295 295 294 293 292 292 291 291 291 290 290 289 288 287 286 285 283 282 281 280 280 279 278 277 277 276 276 276 275 275 274 272 271 270 269 269 268 268 269 269
295 295 296 295 296 297 298 299 301 302 304 306 307 308 307 305 304 303 303 302 302 303 303 303 302 302 301 301 301 301 301 300 300 300 300 300 299 299 299 298 298 298 298 297 297 297 296 295 295 294 294 293 293 293 292 292 291 290 289 288 287 286 284 283 282 282 281 280 279 278 277 277 276 276 275 275 274 272 271 270 269 268 267 267 266 266
292 293 295 295 295 296 298 301 303 304 306 306 307 307 306 306 305 305 304 304 304 304 304 304 304 303 302 302 301 301 301 301 301 301 300 299 299 299 299 299 299 299 299 298 298 297 297 296 296 295 294 294 293 293 293 293 292 291 290 289 288 287 286 285 284 283 282 281 280 279 278 277 276 276 275 274 273 272 271 270 269 269 268 266 265 265
291 292 294 296 297 297 299 302 305 307 307 306 304 303 303 304 305 306 306 306 305 305 305 304 303 303 303 304 303 303 302 301 301 300 300 299 299 299 300 300 300 299 299 299 298 298 297 297 296 295 294 293 293 293 292 292 291 291 290 290 289 289 288 287 286 285 284 282 281 280 278 277 277 276 275 274 273 272 271 270 270 269 268 267 266 265
293 293 295 298 300 301 302 303 305 307 307 305 304 302 302 303 305 307 307 307 306 306 305 304 303 303 304 305 305 305 304 302 302 302 301 300 299 299 299 299 299 299 299 299 299 298 297 297 296 296 295 294 294 293 292 292 291 291 291 290 290 290 289 288 287 286 285 283 282 281 280 279 278 277 276 275 274 273 272 271 270 269 269 268 267 266
296 297 299 302 304 305 304 304 304 305 306 306 305 305 304 305 306 306 306 306 306 306 306 305 304 303 303 304 304 305 305 303 302 303 303 302 301 300 300 301 302 301 300 300 299 298 297 297 297 296 296 295 295 293 293 292 292 291 291 291 291 291 290 289 289 288 287 286 285 284 283 282 280 279 278 277 275 274 273 272 271 270 270 269 268 267
299 302 304 304 304 304 304 304 305 305 305 305 305 305 306 306 307 306 305 304 304 304 305 305 305 304 304 303 303 304 304 303 303 303 303 302 302 302 303 303 302 301 301 300 300 299 298 298 298 297 297 296 295 294 294 293 293 292 292 292 293 293 292 291 290 289 288 287 286 285 283 282 281 280 278 277 276 275 274 273 272 271 270 269 269 268
303 304 304 303 302 302 302 303 304 304 304 304 304 304 304 305 306 305 304 303 303 304 304 304 304 305 305 304 304 304 302 302 302 302 302 301 302 303 303 302 302 301 301 300 299 299 299 299 298 298 298 297 297 296 296 295 295 294 294 295 295 294 293 292 290 289 288 287 285 284 283 282 280 279 278 277 276 274 273 273 272 271 270 269 269 268
304 304 302 301 301 301 301 302 302 302 302 303 303 303 304 305 305 305 304 303 304 305 305 305 305 305 305 305 305 304 303 302 301 302 302 302 302 303 303 302 301 301 301 299 299 299 300 299 298 298 298 298 297 297 296 295 295 295 295 295 295 294 292 291 290 288 287 286 285 284 283 281 280 279 278 277 276 274 273 272 272 271 270 269 269 268
302 302 301 300 300 299 300 300 301 301 301 302 303 304 304 304 304 304 304 303 305 307 307 307 307 307 306 306 306 306 304 303 302 302 303 302 302 303 303 302 302 301 300 299 298 299 300 299 298 298 297 297 297 296 296 295 295 295 295 295 295 293 292 291 290 289 288 287 286 284 283 282 280 279 278 277 276 275 274 273 272 271 270 269 269 268
300 300 299 298 298 299 299 300 300 300 301 302 302 303 303 303 303 304 304 304 305 307 307 307 307 307 307 308 308 308 307 305 303 303 302 302 302 303 303 302 300 300 301 299 297 298 299 299 298 298 297 297 296 296 296 296 296 296 296 296 295 294 293 292 291 290 289 287 286 285 284 282 281 279 278 277 276 275 274 273 272 271 270 269 268 268
299 299 298 297 297 298 298 299 300 300 300 302 302 303 303 303 304 304 304 305 305 305 306 306 305 304 304 305 306 308 308 306 304 303 302 301 302 303 304 303 301 300 300 298 298 298 298 297 298 298 296 296 297 298 298 298 297 297 297 297 296 295 294 293 292 291 289 288 287 285 284 282 281 280 278 277 276 275 274 273 272 271 271 270 269 268
298 297 296 296 295 296 297 298 298 300 301 301 303 304 304 304 304 304 304 304 304 304 304 303 302 301 300 300 302 305 307 306 304 303 302 301 301 303 304 303 301 299 298 298 298 298 298 297 296 296 297 297 299 299 299 299 299 298 297 297 296 296 295 294 293 292 291 289 288 287 285 284 282 281 279 278 277 276 275 274 273 272 271 270 269 269
296 295 293 294 295 295 296 297 298 299 301 302 303 303 303 303 304 304 303 303 303 302 301 300 299 298 298 298 300 302 304 304 304 302 301 300 301 302 303 303 300 299 299 298 298 298 298 298 298 299 300 300 301 301 300 300 299 299 298 298 298 297 297 296 295 294 292 291 289 288 286 285 283 281 280 279 277 276 275 274 273 272 271 270 269 268
294 293 293 294 295 295 295 296 297 299 301 302 303 303 302 303 303 303 303 302 302 301 300 298 297 297 297 298 298 300 303 303 303 301 300 300 300 301 303 303 301 299 298 299 299 300 300 300 300 300 301 301 301 301 300 301 301 301 300 300 299 299 298 297 296 295 293 291 290 288 286 285 283 281 280 279 278 277 276 274 273 272 271 270 269 268
293 293 293 293 293 293 294 296 298 300 301 301 301 301 302 302 302 302 302 301 301 300 298 296 295 295 296 296 297 299 302 302 301 300 300 299 299 301 303 304 302 300 298 299 300 301 302 302 301 300 300 300 301 301 302 302 303 303 301 300 300 299 299 298 297 295 294 293 291 290 288 286 284 283 281 280 279 278 277 275 274 273 272 271 270 269
293 293 293 293 292 292 294 296 298 300 301 301 300 300 299 299 300 299 299 299 298 298 297 296 296 296 296 296 298 300 301 301 300 299 298 297 298 301 304 304 303 300 299 300 302 303 303 302 301 300 301 302 303 304 305 305 304 304 304 303 302 300 299 299 298 298 297 296 294 293 291 289 287 285 283 281 279 278 277 275 274 273 272 271 270 269
293 293 293 293 293 294 295 297 299 300 300 299 298 298 297 297 297 297 296 296 296 296 296 297 298 298 297 298 300 301 302 302 301 299 297 296 297 299 303 304 303 302 301 302 303 303 303 302 302 302 303 304 305 306 306 307 306 305 305 304 303 302 301 301 301 301 300 299 298 296 294 291 289 286 284 281 279 278 276 275 273 272 271 270 269 269
295 294 294 294 295 295 296 296 296 297 298 298 298 298 298 297 297 296 295 295 296 297 298 298 298 298 298 300 301 301 302 303 302 299 298 297 297 299 303 304 303 302 302 303 304 304 304 303 303 303 303 304 305 307 308 308 308 307 306 305 304 303 302 302 303 303 302 301 300 299 297 295 293 291 288 286 283 281 279 277 275 273 272 271 270 269
298 296 295 295 295 295 295 295 295 296 297 298 298 298 298 298 297 297 297 297 297 298 298 298 297 298 299 300 301 302 303 305 304 301 299 298 297 298 302 304 303 302 302 304 305 305 305 304 303 303 303 304 306 308 309 310 310 309 308 307 305 305 304 304 304 305 305 305 304 303 302 301 299 297 295 293 290 286 284 281 279 277 275 274 272 271
299 298 297 297 297 297 297 298 299 299 299 298 297 297 297 298 298 298 298 297 298 298 298 298 298 299 300 301 300 301 304 306 306 303 301 298 296 297 301 304 305 304 304 304 305 305 305 304 303 303 303 305 307 309 310 310 310 309 309 308 307 307 307 308 309 309 309 309 308 307 305 303 302 301 299 297 294 290 287 284 282 280 278 276 275 273
301 300 300 300 300 301 301 302 302 302 301 300 300 299 299 299 298 297 296 298 299 299 298 297 297 298 300 300 300 302 304 305 305 305 302 300 297 298 302 305 306 306 306 305 306 306 305 303 302 303 304 305 306 307 308 309 310 310 311 311 311 311 312 312 312 312 311 311 310 309 307 306 304 303 302 299 296 292 289 286 284 282 279 277 275 273
303 302 302 302 302 303 303 304 304 305 305 306 307 307 305 301 298 296 297 300 301 300 298 297 297 297 298 299 301 303 304 304 306 306 304 302 300 300 304 306 307 307 308 308 308 308 306 304 302 303 304 305 305 306 307 308 310 312 314 315 315 315 315 314 314 314 312 311 310 309 308 307 307 307 305 303 300 296 292 289 286 284 281 278 275 273
303 303 303 303 305 306 308 309 310 312 314 316 316 315 311 306 302 301 302 303 302 299 298 297 297 298 299 300 302 303 303 304 306 307 306 304 302 303 306 306 306 307 309 310 310 309 308 307 306 305 305 305 305 305 306 307 310 312 314 315 316 316 317 316 315 314 313 311 310 309 309 309 309 310 310 309 307 304 299 295 291 287 283 280 277 274
303 304 306 308 311 313 314 316 317 319 320 321 321 319 316 312 309 307 305 304 302 300 298 297 297 298 298 299 300 299 298 302 306 309 308 305 302 302 305 305 306 307 308 309 308 308 308 308 308 308 308 307 306 305 306 306 308 309 311 312 313 314 315 315 314 313 311 311 311 311 311 312 313 314 314 315 314 311 305 300 295 290 286 282 279 275
305 308 311 315 318 319 319 319 320 320 321 321 321 321 319 316 314 311 308 306 305 303 300 298 297 298 297 296 294 292 293 299 306 310 307 304 302 302 304 304 305 306 307 306 303 301 302 303 306 308 309 308 307 306 306 306 307 308 309 309 310 311 313 314 313 311 310 310 312 313 314 316 318 319 319 319 318 316 312 306 300 294 289 285 281 277
310 314 318 320 321 321 319 318 318 318 318 320 320 320 321 319 318 315 312 310 308 305 302 299 298 298 297 295 293 292 293 299 306 310 308 304 301 302 303 304 304 305 306 304 301 298 296 297 301 305 307 307 306 306 306 306 307 307 308 307 308 310 311 312 312 311 311 312 314 316 318 321 323 324 323 322 321 319 318 314 309 303 295 289 284 281
316 319 321 321 321 320 318 317 316 316 316 318 319 320 320 320 319 317 315 312 310 307 304 301 299 297 296 295 294 294 296 302 309 312 310 305 301 301 303 303 304 304 305 304 302 301 298 297 298 301 304 305 305 305 306 307 307 307 307 306 306 307 309 311 312 313 314 315 317 319 322 324 326 326 325 324 322 321 319 317 316 311 303 293 287 283
318 319 319 319 318 318 318 317 317 316 316 316 318 319 320 319 318 318 317 314 312 310 307 303 301 298 295 294 293 294 297 305 313 316 313 308 304 302 302 302 302 304 304 303 302 302 300 299 299 300 301 302 304 305 306 306 307 307 306 305 305 306 309 311 312 313 315 316 318 320 322 324 326 326 325 324 323 321 319 316 315 313 307 299 290 284
316 316 316 317 317 316 316 317 317 317 318 318 319 319 320 320 320 320 319 317 315 313 311 308 306 303 299 296 293 294 298 306 314 318 317 313 309 305 302 301 302 303 302 301 301 300 300 299 300 301 300 300 301 303 305 307 307 307 306 306 307 308 310 311 312 313 314 315 317 319 322 323 324 324 324 323 322 320 318 316 314 313 310 307 299 290
314 313 314 315 315 315 314 316 316 317 319 320 321 321 322 324 324 323 323 322 320 318 315 313 312 310 307 303 299 298 302 308 314 318 320 319 314 308 302 302 303 303 302 300 300 300 300 299 299 300 300 298 298 299 302 305 307 306 305 306 307 308 310 313 314 314 314 314 316 318 321 322 322 322 322 322 321 320 318 317 316 314 313 312 308 303
314 313 313 314 314 314 314 314 315 317 318 319 320 322 325 326 327 327 325 325 325 323 319 316 315 314 313 310 307 306 308 310 315 319 322 322 318 312 305 304 305 307 306 304 302 301 299 298 297 298 298 298 297 298 300 303 304 304 304 306 307 308 310 313 315 315 314 314 316 319 321 322 322 321 321 321 320 318 317 316 316 316 315 313 311 309
313 313 313 314 314 314 313 314 316 317 317 319 321 323 326 327 329 330 328 326 325 324 321 318 316 316 316 315 313 312 312 313 316 320 323 324 322 318 312 308 307 309 311 309 306 303 299 296 295 294 295 297 298 299 300 301 301 302 304 306 308 310 312 315 316 315 315 315 317 319 321 322 322 321 320 319 318 316 314 314 314 315 313 311 309 308
313 313 313 314 315 315 315 315 316 317 318 320 322 324 325 326 327 328 327 324 323 322 321 321 320 319 319 317 316 315 315 317 320 323 325 326 326 324 319 313 311 311 312 311 308 304 298 295 294 294 294 295 296 298 299 300 300 302 304 305 305 308 314 316 317 317 317 318 318 319 320 321 321 320 319 318 316 314 313 313 313 314 313 310 307 305
313 314 314 317 318 318 317 316 316 317 318 319 321 321 321 322 321 321 322 321 320 320 321 321 321 321 321 321 321 321 321 323 324 326 328 328 328 326 323 318 315 314 313 310 307 304 301 297 296 295 295 295 296 296 297 298 300 301 302 301 303 307 313 316 317 318 319 318 318 319 319 320 320 320 319 318 316 315 314 313 313 314 314 312 309 304
314 315 317 318 320 320 319 319 319 320 320 319 317 317 317 319 318 317 316 316 316 317 319 319 318 318 320 324 328 329 329 329 329 329 329 329 328 326 323 320 318 316 312 309 306 304 302 300 298 296 295 296 296 296 297 298 300 302 301 301 304 309 313 316 318 319 318 317 319 320 321 320 320 319 319 317 316 316 316 315 314 314 313 312 311 308
315 317 319 320 320 320 321 322 322 322 322 320 318 316 317 317 316 315 314 313 313 315 318 319 318 317 318 321 327 332 335 335 333 332 330 329 327 325 322 319 317 315 313 308 305 304 304 302 299 297 297 297 297 296 295 297 299 301 303 305 306 306 307 311 317 320 319 319 320 321 322 321 320 319 318 317 316 316 316 316 316 315 314 313 311 309
316 318 321 322 322 322 323 323 324 323 322 319 318 317 317 317 316 314 313 313 313 315 318 319 320 319 317 317 320 325 330 335 337 335 333 331 328 325 321 318 317 315 313 308 305 304 304 303 302 301 300 300 298 296 295 297 299 302 305 308 308 305 302 307 313 317 318 320 321 322 323 322 322 320 319 318 317 316 316 316 317 317 317 316 314 311
318 320 321 322 323 323 323 323 324 325 322 320 319 318 318 318 316 315 315 314 315 318 320 321 321 318 315 314 316 319 323 329 333 335 334 332 329 326 322 319 317 315 313 311 309 306 304 302 303 304 305 303 300 297 296 297 300 303 306 309 309 307 307 309 312 314 315 317 319 321 324 325 323 321 319 317 317 317 317 318 318 318 319 319 318 316
319 320 321 322 322 322 322 324 325 325 323 321 320 320 321 320 319 318 317 317 318 319 322 323 321 317 314 313 314 317 319 323 326 329 330 330 329 327 325 321 318 316 314 313 312 310 307 304 304 305 305 304 301 300 299 300 301 303 306 309 310 309 310 311 312 313 314 316 318 321 325 327 325 322 318 317 317 317 319 320 320 320 321 321 321 321
320 320 320 321 321 322 324 325 324 323 321 321 322 323 323 322 321 320 320 321 321 321 322 323 321 317 314 314 315 316 316 317 319 322 324 325 326 326 325 323 321 319 317 315 314 312 310 309 307 305 303 300 298 299 302 304 304 304 305 308 310 310 310 311 313 315 315 316 318 321 326 327 325 322 320 318 318 318 319 321 322 323 324 324 325 325
321 321 321 321 320 320 322 323 322 320 320 320 321 323 323 324 323 322 322 323 323 323 322 322 320 318 316 315 316 316 315 315 316 318 320 322 324 325 324 323 322 321 319 318 316 314 312 311 308 305 301 297 295 296 300 305 306 306 307 308 309 309 309 311 313 315 316 317 320 323 326 326 324 322 321 319 319 319 320 322 324 327 328 329 329 328
324 323 322 322 321 321 321 321 321 320 319 319 320 322 323 326 326 324 323 324 324 323 322 320 319 317 316 316 317 317 316 315 316 317 319 321 323 323 323 324 323 322 321 320 318 317 315 313 310 307 304 299 296 296 299 303 306 307 307 307 307 307 308 310 313 315 316 318 321 325 327 327 326 324 322 319 319 320 321 324 327 330 333 334 333 332
327 326 324 322 320 320 321 320 320 320 320 321 321 322 324 326 327 327 327 326 325 324 322 320 318 316 315 315 316 317 316 316 316 317 319 321 322 322 323 323 324 323 321 321 320 320 319 317 315 314 312 309 304 300 300 302 304 305 305 304 305 307 308 310 312 315 317 319 322 325 328 328 328 327 324 321 320 321 323 325 328 332 336 339 339 338
328 328 327 325 322 321 322 321 321 321 321 321 322 323 324 326 327 328 328 328 326 325 324 322 319 316 314 314 314 315 315 315 315 316 319 321 323 323 322 323 323 323 321 320 320 320 320 319 319 318 319 319 315 308 302 302 303 304 303 305 307 309 310 311 313 315 318 320 323 325 327 327 327 327 326 324 323 323 324 326 328 333 339 343 344 345
Height
1423 1421 1420 1419 1418 1416 1414 1414 1413 1411 1408 1407 1406 1405 1404 1402 1400 1399 1397 1396 1394 1392 1390 1388 1386 1384 1382 1381 1380 1378 1377 1376 1375 1373 1372 1370 1369 1367 1366 1365 1363 1362 1360 1359 1358 1356 1355 1354 1352 1351 1350 1349 1348 1347 1346 1345 1344 1343 1342 1341 1341 1340 1339 1338 1337 1336 1336 1335 1334 1334 1333 1332 1331 1331 1331 1331 1330 1330 1330 1330 1330 1330 1329 1329 1329 1329
1421 1420 1418 1417 1416 1414 1412 1411 1411 1410 1408 1405 1404 1403 1401 1400 1398 1396 1395 1393 1392 1390 1388 1386 1384 1382 1381 1379 1378 1376 1375 1374 1372 1371 1369 1368 1366 1365 1363 1362 1360 1359 1357 1356 1355 1353 1352 1351 1350 1348 1347 1346 1345 1344 1343 1342 1341 1340 1339 1338 1337 1336 1335 1335 1334 1333 1332 1332 1331 1330 1330 1329 1328 1327 1327 1326 1326 1326 1325 1325 1325 1325 1325 1325 1326 1325
1420 1418 1416 1416 1415 1413 1411 1409 1408 1408 1406 1404 1402 1401 1399 1398 1396 1394 1393 1391 1389 1387 1386 1384 1382 1380 1379 1377 1376 1374 1373 1371 1370 1368 1367 1366 1364 1362 1361 1359 1357 1356 1354 1353 1351 1350 1349 1348 1346 1345 1344 1343 1342 1341 1340 1339 1338 1337 1336 1335 1334 1333 1332 1331 1330 1330 1329 1328 1328 1327 1326 1326 1325 1324 1324 1323 1323 1323 1322 1321 1321 1321 1321 1321 1321 1321
1419 1417 1415 1414 1413 1411 1410 1408 1406 1405 1404 1402 1400 1399 1397 1396 1394 1392 1390 1388 1386 1385 1383 1382 1381 1379 1377 1375 1373 1372 1371 1369 1368 1366 1365 1363 1361 1359 1357 1356 1354 1353 1351 1350 1349 1347 1346 1345 1344 1343 1341 1340 1339 1338 1337 1336 1335 1334 1333 1331 1331 1330 1329 1328 1327 1326 1326 1325 1324 1324 1323 1322 1322 1321 1321 1320 1320 1319 1319 1318 1318 1318 1317 1317 1317 1317
1418 1416 1414 1412 1411 1409 1408 1406 1405 1403 1401 1400 1399 1397 1395 1393 1391 1390 1388 1386 1385 1383 1381 1380 1379 1377 1375 1373 1371 1370 1368 1367 1365 1364 1362 1360 1358 1356 1355 1353 1351 1350 1349 1347 1346 1345 1344 1342 1341 1340 1339 1337 1336 1335 1334 1333 1331 1331 1329 1328 1327 1326 1325 1324 1324 1323 1322 1321 1321 1320 1319 1319 1318 1318 1317 1317 1316 1316 1316 1316 1315 1315 1314 1314 1314 1314
1416 1415 1413 1411 1409 1407 1406 1404 1403 1401 1400 1398 1396 1395 1393 1391 1389 1388 1386 1385 1383 1381 1380 1378 1377 1375 1374 1372 1370 1368 1366 1364 1362 1361 1359 1357 1355 1353 1352 1351 1349 1348 1346 1345 1344 1342 1341 1340 1338 1337 1336 1334 1333 1332 1331 1329 1328 1327 1326 1325 1324 1323 1322 1321 1320 1319 1318 1318 1317 1316 1316 1315 1315 1314 1314 1313 1313 1313 1312 1312 1312 1311 1311 1311 1311 1311
1414 1413 1412 1410 1408 1406 1404 1403 1402 1400 1398 1396 1394 1393 1391 1390 1388 1386 1385 1383 1382 1380 1378 1376 1375 1374 1372 1370 1368 1366 1364 1361 1360 1358 1356 1354 1353 1351 1350 1348 1347 1345 1344 1343 1341 1340 1338 1337 1335 1334 1332 1331 1330 1329 1327 1326 1325 1324 1322 1321 1320 1319 1318 1317 1316 1316 1315 1314 1313 1313 1312 1312 1311 1311 1310 1310 1309 1309 1309 1309 1309 1308 1308 1308 1308 1308
1412 1411 1410 1409 1407 1404 1402 1401 1401 1399 1397 1395 1392 1391 1389 1388 1386 1385 1383 1382 1380 1379 1377 1375 1373 1371 1370 1368 1366 1364 1361 1359 1357 1355 1354 1352 1351 1349 1347 1346 1344 1343 1341 1340 1338 1337 1335 1334 1332 1331 1329 1328 1326 1325 1324 1323 1322 1321 1319 1318 1317 1316 1315 1314 1313 1312 1311 1311 1310 1310 1309 1308 1308 1307 1307 1306 1306 1306 1306 1306 1305 1305 1305 1305 1305 1305
1412 1409 1407 1407 1406 1403 1401 1399 1398 1398 1397 1395 1392 1390 1388 1386 1384 1383 1381 1380 1379 1377 1376 1373 1371 1369 1367 1366 1364 1362 1360 1357 1356 1354 1352 1350 1348 1346 1345 1343 1341 1340 1338 1337 1335 1334 1332 1331 1329 1328 1326 1325 1324 1322 1321 1320 1319 1317 1316 1315 1314 1313 1312 1311 1310 1309 1308 1308 1307 1306 1306 1305 1305 1304 1304 1303 1303 1302 1302 1302 1302 1301 1301 1301 1301 1301
1411 1408 1406 1405 1404 1402 1400 1397 1396 1396 1396 1394 1392 1390 1388 1385 1382 1381 1379 1378 1376 1376 1374 1372 1369 1367 1364 1363 1361 1360 1358 1355 1354 1352 1350 1348 1346 1345 1342 1341 1339 1337 1335 1334 1332 1331 1329 1328 1326 1325 1323 1322 1321 1319 1318 1317 1316 1314 1313 1312 1311 1310 1309 1308 1307 1306 1306 1305 1304 1303 1303 1302 1301 1301 1300 1300 1300 1299 1299 1299 1298 1298 1298 1298 1298 1298
1408 1407 1405 1403 1402 1401 1400 1398 1396 1394 1394 1392 1391 1389 1387 1386 1383 1380 1377 1375 1374 1373 1372 1370 1368 1366 1363 1361 1359 1357 1356 1353 1351 1349 1348 1346 1344 1342 1341 1338 1336 1335 1333 1331 1329 1328 1326 1325 1323 1321 1320 1319 1317 1316 1315 1314 1312 1311 1310 1309 1308 1307 1306 1305 1304 1303 1302 1301 1301 1300 1300 1299 1298 1298 1297 1297 1296 1296 1296 1295 1295 1295 1295 1294 1294 1294
1407 1406 1404 1402 1401 1400 1398 1397 1395 1394 1393 1391 1389 1386 1385 1384 1383 1381 1377 1374 1372 1371 1369 1367 1366 1364 1362 1360 1357 1355 1353 1351 1349 1347 1345 1344 1342 1341 1338 1336 1334 1332 1330 1328 1326 1325 1323 1321 1320 1318 1317 1316 1314 1313 1312 1311 1309 1308 1307 1306 1305 1304 1303 1302 1301 1301 1300 1299 1298 1297 1297 1296 1296 1295 1294 1294 1293 1293 1292 1292 1292 1291 1291 1291 1291 1291
1406 1405 1404 1402 1401 1399 1397 1396 1394 1392 1391 1390 1388 1386 1383 1382 1381 1380 1377 1374 1372 1370 1368 1365 1363 1361 1361 1359 1357 1354 1352 1349 1347 1345 1344 1342 1340 1339 1336 1334 1332 1330 1328 1326 1323 1321 1320 1319 1317 1315 1314 1312 1311 1310 1309 1307 1306 1305 1304 1303 1302 1301 1300 1299 1299 1298 1297 1296 1295 1295 1294 1293 1292 1292 1291 1291 1290 1290 1289 1289 1288 1288 1288 1288 1287 1287
1406 1404 1403 1401 1400 1398 1397 1395 1393 1391 1390 1388 1387 1385 1383 1381 1380 1378 1376 1373 1371 1369 1366 1364 1361 1359 1358 1357 1356 1354 1351 1348 1345 1343 1341 1340 1339 1337 1335 1332 1330 1327 1326 1323 1321 1319 1318 1316 1314 1312 1311 1309 1308 1307 1306 1305 1303 1302 1301 1301 1300 1299 1298 1297 1296 1295 1294 1293 1292 1291 1291 1290 1289 1289 1288 1287 1287 1286 1286 1286 1285 1285 1285 1284 1284 1284
1405 1403 1401 1400 1398 1397 1395 1394 1392 1390 1388 1387 1386 1384 1381 1380 1378 1376 1374 1371 1369 1367 1365 1362 1359 1357 1356 1356 1354 1353 1350 1347 1344 1342 1340 1338 1337 1336 1334 1331 1327 1325 1324 1321 1319 1317 1315 1314 1312 1310 1308 1306 1306 1304 1303 1302 1301 1300 1299 1298 1297 1296 1295 1294 1293 1292 1291 1290 1289 1288 1288 1287 1286 1286 1285 1284 1284 1283 1283 1282 1282 1281 1281 1281 1281 1280
1404 1402 1401 1398 1396 1395 1394 1392 1391 1389 1387 1386 1384 1382 1381 1378 1376 1375 1373 1370 1367 1365 1363 1361 1357 1355 1353 1353 1353 1352 1350 1346 1343 1341 1338 1336 1334 1333 1332 1329 1326 1323 1321 1319 1317 1315 1313 1311 1310 1308 1306 1304 1303 1302 1301 1300 1299 1298 1297 1296 1295 1293 1292 1291 1290 1289 1288 1287 1286 1285 1285 1284 1283 1282 1282 1281 1281 1280 1280 1279 1278 1278 1278 1277 1277 1277
1402 1401 1399 1397 1395 1393 1392 1391 1390 1388 1386 1384 1383 1381 1380 1377 1376 1373 1371 1369 1367 1364 1362 1360 1358 1354 1351 1349 1349 1350 1349 1346 1342 1339 1336 1333 1331 1331 1330 1328 1324 1321 1318 1317 1315 1313 1311 1309 1307 1306 1304 1302 1301 1300 1299 1298 1296 1295 1294 1293 1291 1291 1289 1288 1287 1286 1285 1284 1283 1282 1281 1281 1280 1279 1278 1278 1277 1276 1276 1276 1275 1274 1274 1274 1274 1273
1400 1399 1397 1396 1394 1392 1391 1389 1388 1386 1385 1383 1381 1379 1378 1376 1374 1372 1370 1368 1366 1364 1362 1360 1358 1355 1351 1348 1346 1346 1347 1345 1341 1337 1334 1331 1329 1328 1327 1326 1323 1320 1317 1315 1313 1311 1310 1307 1306 1304 1302 1301 1299 1298 1296 1295 1294 1292 1291 1290 1289 1287 1286 1286 1284 1283 1282 1281 1280 1279 1278 1277 1276 1276 1275 1274 1274 1273 1272 1272 1271 1271 1271 1270 1270 1270
1398 1397 1396 1394 1392 1391 1389 1388 1386 1385 1383 1381 1380 1377 1376 1374 1372 1371 1369 1367 1366 1364 1361 1359 1356 1354 1352 1348 1345 1344 1344 1343 1340 1336 1333 1329 1327 1325 1325 1323 1321 1318 1315 1313 1311 1310 1308 1306 1304 1302 1300 1298 1296 1295 1294 1292 1291 1290 1289 1287 1286 1285 1284 1282 1281 1280 1279 1278 1277 1276 1275 1274 1273 1273 1272 1271 1270 1270 1269 1268 1268 1267 1267 1266 1266 1266
1396 1395 1394 1393 1391 1389 1387 1386 1385 1384 1382 1380 1378 1376 1374 1372 1371 1369 1367 1366 1364 1362 1361 1358 1356 1353 1351 1347 1345 1342 1342 1341 1338 1334 1331 1328 1325 1323 1323 1321 1319 1316 1313 1311 1309 1308 1306 1304 1301 1299 1297 1296 1294 1293 1291 1290 1289 1287 1286 1285 1283 1282 1281 1280 1278 1277 1276 1275 1274 1273 1272 1271 1270 1269 1269 1268 1267 1266 1266 1265 1265 1264 1263 1263 1262 1262
1395 1393 1392 1391 1390 1388 1386 1384 1383 1382 1381 1379 1377 1375 1373 1371 1369 1367 1366 1364 1362 1361 1359 1356 1354 1351 1349 1346 1343 1341 1340 1339 1336 1333 1330 1326 1323 1322 1321 1320 1318 1315 1311 1309 1307 1306 1304 1302 1299 1297 1295 1293 1292 1290 1289 1287 1286 1284 1283 1281 1280 1279 1278 1277 1276 1274 1273 1272 1271 1270 1269 1268 1267 1266 1265 1265 1264 1263 1262 1261 1261 1260 1260 1259 1259 1258
1394 1392 1391 1390 1389 1387 1385 1383 1381 1380 1379 1378 1376 1374 1371 1370 1367 1365 1364 1362 1361 1358 1356 1354 1352 1350 1348 1345 1342 1340 1339 1338 1336 1333 1329 1325 1322 1320 1320 1319 1316 1313 1310 1307 1305 1304 1302 1300 1297 1295 1293 1291 1289 1287 1286 1284 1283 1281 1280 1279 1278 1276 1275 1274 1273 1272 1271 1269 1268 1267 1266 1265 1264 1263 1262 1261 1261 1260 1259 1258 1257 1257 1256 1256 1255 1254
1392 1391 1389 1388 1386 1385 1383 1381 1379 1378 1377 1376 1375 1372 1371 1369 1366 1364 1362 1361 1359 1356 1354 1352 1350 1348 1346 1344 1341 1338 1337 1336 1335 1333 1330 1325 1321 1318 1318 1317 1315 1311 1308 1306 1304 1302 1300 1297 1295 1292 1290 1288 1286 1285 1283 1281 1280 1279 1278 1276 1275 1274 1273 1271 1270 1269 1267 1266 1265 1264 1263 1262 1261 1260 1259 1258 1257 1256 1256 1255 1254 1253 1252 1252 1251 1251
1391 1389 1387 1386 1384 1383 1381 1380 1378 1377 1376 1374 1372 1371 1369 1367 1365 1363 1361 1359 1357 1355 1353 1350 1348 1346 1344 1342 1340 1337 1336 1335 1334 1332 1329 1325 1321 1318 1316 1316 1313 1310 1306 1304 1302 1301 1297 1295 1292 1290 1288 1285 1283 1282 1281 1279 1278 1277 1276 1274 1273 1271 1270 1269 1267 1266 1265 1263 1262 1261 1260 1259 1258 1257 1256 1255 1254 1253 1252 1251 1250 1249 1249 1248 1247 1247
1389 1387 1386 1384 1382 1381 1380 1379 1377 1376 1374 1372 1370 1368 1366 1365 1363 1361 1360 1358 1356 1354 1351 1349 1347 1344 1342 1340 1338 1336 1334 1334 1333 1331 1328 1324 1320 1317 1316 1315 1312 1309 1304 1302 1301 1299 1296 1293 1290 1287 1286 1283 1281 1280 1278 1277 1276 1274 1273 1272 1271 1269 1268 1266 1265 1263 1262 1261 1259 1258 1257 1256 1254 1253 1252 1251 1250 1249 1248 1247 1246 1245 1244 1244 1243 1242
1387 1385 1384 1382 1381 1379 1378 1376 1375 1373 1372 1370 1368 1366 1365 1363 1361 1359 1357 1356 1354 1352 1350 1348 1346 1343 1341 1339 1336 1334 1332 1331 1331 1330 1327 1324 1319 1316 1314 1313 1311 1308 1303 1300 1298 1297 1295 1291 1288 1285 1283 1281 1279 1277 1276 1275 1273 1272 1271 1270 1268 1267 1265 1264 1262 1261 1259 1258 1256 1255 1254 1252 1251 1250 1249 1248 1246 1246 1245 1244 1243 1241 1241 1240 1239 1238
1385 1383 1381 1380 1378 1377 1375 1373 1372 1370 1369 1368 1366 1365 1364 1362 1360 1358 1356 1354 1353 1351 1349 1347 1344 1341 1339 1337 1335 1333 1331 1329 1328 1327 1326 1323 1319 1315 1313 1311 1310 1307 1303 1299 1296 1295 1293 1290 1286 1284 1281 1279 1277 1276 1274 1273 1271 1270 1269 1267 1266 1264 1263 1261 1260 1258 1256 1255 1254 1252 1251 1250 1248 1247 1246 1244 1243 1242 1241 1240 1239 1238 1237 1236 1235 1234
1382 1380 1379 1377 1376 1374 1372 1371 1369 1367 1366 1365 1364 1363 1362 1361 1359 1356 1354 1353 1351 1350 1348 1346 1343 1341 1338 1336 1334 1331 1329 1328 1326 1326 1324 1322 1319 1315 1312 1311 1309 1306 1303 1298 1294 1292 1291 1288 1286 1283 1280 1278 1276 1275 1273 1271 1269 1268 1266 1264 1263 1261 1260 1258 1257 1255 1254 1252 1251 1250 1248 1247 1246 1244 1243 1241 1240 1239 1238 1237 1236 1235 1234 1232 1231 1229
1380 1378 1376 1375 1373 1371 1370 1368 1366 1365 1364 1362 1362 1361 1360 1359 1357 1355 1353 1351 1350 1349 1346 1345 1343 1340 1338 1335 1333 1330 1328 1326 1326 1325 1323 1321 1317 1314 1312 1310 1308 1306 1302 1298 1293 1289 1287 1286 1285 1282 1280 1277 1275 1273 1271 1269 1267 1265 1263 1261 1260 1258 1257 1256 1254 1253 1251 1250 1249 1247 1246 1245 1243 1241 1240 1238 1237 1236 1234 1233 1232 1231 1230 1228 1227 1225
1377 1376 1374 1372 1371 1369 1367 1366 1364 1362 1361 1361 1360 1359 1358 1357 1356 1354 1351 1350 1349 1347 1345 1343 1341 1339 1337 1335 1332 1329 1326 1325 1324 1323 1322 1319 1316 1313 1311 1309 1307 1305 1303 1299 1293 1287 1283 1282 1282 1281 1279 1276 1274 1272 1270 1267 1265 1263 1261 1259 1257 1256 1254 1253 1252 1251 1249 1248 1246 1245 1244 1242 1240 1238 1237 1235 1234 1232 1231 1230 1229 1228 1226 1224 1223 1221
1375 1373 1371 1370 1368 1366 1365 1363 1362 1361 1360 1359 1358 1357 1356 1355 1353 1352 1350 1349 1348 1346 1344 1342 1340 1338 1336 1335 1332 1329 1325 1322 1321 1322 1321 1318 1315 1312 1310 1308 1306 1304 1302 1301 1296 1290 1283 1278 1276 1277 1277 1275 1272 1270 1268 1266 1264 1262 1260 1257 1255 1253 1252 1251 1250 1249 1247 1246 1244 1242 1241 1239 1237 1236 1234 1232 1230 1229 1227 1226 1225 1224 1222 1221 1219 1217
1373 1371 1370 1368 1366 1365 1363 1362 1361 1360 1358 1357 1356 1355 1354 1353 1352 1350 1349 1348 1346 1345 1343 1341 1339 1337 1335 1334 1332 1329 1324 1321 1319 1320 1319 1317 1314 1311 1309 1307 1305 1302 1301 1300 1298 1294 1288 1280 1275 1273 1273 1272 1270 1268 1266 1264 1262 1261 1258 1256 1254 1251 1250 1249 1248 1246 1245 1243 1241 1240 1238 1236 1234 1232 1231 1229 1227 1225 1224 1223 1222 1221 1219 1218 1216 1214
1371 1370 1368 1366 1365 1363 1362 1361 1360 1359 1357 1356 1355 1354 1353 1351 1350 1349 1347 1346 1345 1343 1342 1340 1337 1335 1333 1331 1330 1327 1323 1320 1318 1318 1317 1316 1313 1310 1308 1306 1304 1301 1299 1298 1296 1294 1290 1284 1278 1273 1271 1269 1268 1266 1264 1262 1261 1259 1257 1255 1253 1250 1248 1247 1246 1244 1242 1240 1238 1236 1234 1233 1231 1229 1227 1225 1223 1222 1220 1219 1218 1217 1216 1214 1212 1210
1370 1368 1366 1365 1364 1362 1361 1360 1359 1358 1356 1355 1354 1352 1351 1350 1348 1347 1346 1345 1343 1341 1340 1338 1336 1334 1332 1330 1327 1324 1321 1318 1317 1317 1316 1315 1312 1309 1307 1305 1302 1300 1297 1295 1293 1291 1289 1285 1281 1276 1271 1267 1265 1264 1263 1261 1259 1257 1256 1254 1252 1249 1247 1245 1244 1241 1239 1237 1235 1233 1231 1229 1227 1225 1223 1221 1220 1218 1216 1215 1214 1213 1212 1211 1210 1208
1368 1367 1366 1364 1363 1361 1360 1359 1358 1356 1355 1354 1353 1351 1350 1348 1347 1346 1344 1342 1341 1340 1338 1336 1335 1333 1331 1329 1326 1322 1319 1316 1316 1315 1314 1313 1311 1308 1306 1303 1301 1299 1296 1294 1291 1289 1286 1283 1280 1277 1273 1268 1263 1261 1260 1259 1258 1256 1254 1252 1251 1248 1246 1244 1242 1240 1237 1235 1232 1230 1228 1226 1224 1222 1220 1218 1216 1215 1213 1212 1211 1209 1208 1207 1206 1205
1367 1366 1365 1364 1362 1361 1359 1358 1356 1355 1354 1352 1351 1350 1348 1347 1345 1344 1342 1341 1339 1338 1336 1334 1332 1331 1329 1327 1325 1321 1318 1315 1314 1313 1312 1311 1309 1307 1305 1302 1300 1298 1296 1293 1290 1288 1285 1281 1278 1276 1273 1269 1264 1260 1257 1257 1256 1254 1252 1250 1248 1246 1244 1242 1240 1238 1235 1232 1230 1228 1226 1224 1221 1219 1217 1215 1213 1211 1210 1208 1207 1205 1204 1203 1202 1201
1367 1366 1364 1363 1361 1360 1358 1357 1355 1354 1352 1351 1350 1348 1346 1345 1343 1342 1340 1338 1337 1336 1334 1332 1330 1328 1326 1325 1322 1320 1317 1314 1312 1311 1310 1309 1307 1306 1303 1301 1298 1296 1295 1292 1289 1286 1283 1280 1276 1273 1271 1269 1265 1261 1256 1254 1253 1251 1249 1248 1246 1244 1242 1240 1238 1236 1234 1231 1228 1226 1224 1222 1220 1217 1214 1212 1210 1207 1206 1204 1202 1201 1200 1198 1197 1196
1366 1365 1363 1362 1361 1359 1357 1356 1354 1353 1351 1350 1348 1346 1345 1343 1341 1340 1338 1336 1335 1333 1332 1330 1328 1326 1324 1322 1320 1318 1315 1313 1311 1309 1308 1306 1306 1304 1302 1299 1296 1294 1293 1291 1288 1285 1282 1279 1276 1272 1269 1266 1263 1260 1257 1254 1251 1249 1247 1245 1244 1242 1240 1237 1236 1234 1232 1229 1226 1224 1222 1220 1217 1215 1212 1209 1206 1204 1202 1200 1198 1196 1195 1193 1192 1191
1366 1364 1363 1361 1360 1358 1357 1355 1353 1352 1350 1348 1347 1345 1343 1341 1340 1338 1336 1335 1333 1331 1330 1328 1326 1324 1321 1319 1317 1316 1314 1312 1310 1308 1306 1305 1303 1302 1300 1297 1295 1292 1291 1289 1287 1284 1282 1279 1276 1272 1268 1265 1261 1258 1256 1254 1251 1248 1245 1242 1240 1238 1237 1236 1234 1232 1230 1227 1225 1222 1219 1217 1215 1212 1210 1207 1204 1202 1199 1197 1195 1193 1192 1190 1188 1186
1365 1363 1362 1360 1359 1357 1356 1354 1352 1351 1349 1347 1345 1343 1342 1340 1339 1337 1335 1334 1332 1331 1329 1327 1325 1322 1320 1318 1316 1314 1312 1310 1308 1306 1304 1303 1301 1300 1298 1296 1293 1290 1288 1286 1285 1283 1281 1277 1274 1271 1268 1265 1261 1257 1254 1252 1250 1247 1245 1242 1238 1235 1234 1233 1232 1230 1228 1225 1223 1220 1217 1215 1212 1210 1207 1205 1202 1200 1197 1195 1192 1190 1189 1187 1185 1182
1364 1362 1361 1359 1357 1356 1354 1353 1351 1349 1347 1346 1344 1342 1341 1339 1338 1336 1334 1332 1331 1329 1327 1326 1323 1321 1318 1316 1314 1312 1310 1308 1306 1304 1302 1301 1299 1297 1296 1294 1291 1289 1286 1284 1282 1280 1278 1276 1272 1269 1266 1263 1260 1257 1253 1250 1248 1246 1245 1242 1238 1234 1231 1230 1229 1228 1226 1223 1221 1219 1216 1213 1210 1207 1205 1202 1200 1197 1195 1192 1190 1187 1185 1184 1182 1180
1363 1361 1359 1358 1356 1354 1353 1351 1349 1348 1346 1345 1343 1341 1340 1338 1337 1335 1333 1331 1329 1327 1326 1324 1322 1319 1316 1314 1311 1310 1308 1306 1304 1302 1301 1299 1297 1296 1294 1292 1290 1287 1285 1283 1280 1278 1276 1274 1271 1268 1265 1262 1259 1256 1251 1248 1246 1245 1243 1241 1237 1233 1230 1227 1227 1226 1224 1222 1219 1216 1214 1211 1208 1205 1202 1199 1196 1194 1191 1189 1187 1184 1182 1180 1178 1177
1361 1360 1358 1356 1355 1353 1351 1350 1348 1346 1345 1343 1342 1340 1339 1337 1336 1334 1332 1331 1328 1326 1325 1323 1321 1318 1315 1312 1309 1307 1306 1304 1303 1301 1299 1297 1296 1294 1292 1290 1288 1286 1284 1281 1279 1276 1273 1271 1269 1267 1264 1261 1258 1255 1251 1247 1244 1243 1241 1239 1237 1234 1230 1226 1224 1223 1222 1220 1217 1214 1212 1209 1206 1203 1200 1197 1194 1190 1187 1185 1183 1181 1179 1177 1175 1173
1360 1359 1357 1356 1354 1352 1351 1349 1347 1346 1344 1342 1341 1339 1337 1336 1335 1333 1331 1329 1327 1325 1323 1321 1319 1316 1314 1311 1308 1306 1304 1302 1301 1299 1298 1296 1294 1293 1291 1289 1286 1284 1282 1281 1278 1275 1271 1269 1266 1264 1262 1260 1257 1254 1250 1246 1243 1241 1239 1237 1236 1234 1231 1227 1224 1221 1219 1217 1214 1212 1210 1207 1204 1201 1197 1194 1191 1188 1185 1182 1180 1177 1176 1174 1172 1170
1359 1357 1356 1355 1353 1351 1350 1348 1346 1344 1343 1341 1339 1337 1336 1335 1334 1332 1330 1328 1326 1324 1322 1320 1318 1315 1312 1310 1307 1305 1302 1300 1298 1297 1296 1294 1293 1291 1289 1287 1285 1283 1281 1278 1276 1273 1271 1267 1264 1261 1259 1257 1255 1252 1248 1245 1242 1239 1237 1236 1234 1232 1230 1226 1224 1221 1218 1215 1212 1210 1208 1206 1202 1199 1195 1191 1188 1185 1182 1180 1177 1175 1173 1171 1169 1168
1358 1357 1355 1354 1352 1350 1349 1347 1345 1344 1342 1340 1338 1336 1335 1334 1332 1331 1329 1327 1325 1322 1320 1319 1317 1315 1311 1309 1306 1304 1301 1299 1297 1295 1293 1292 1290 1289 1287 1285 1283 1281 1278 1276 1273 1271 1269 1266 1262 1259 1257 1255 1252 1249 1247 1244 1242 1239 1236 1234 1232 1230 1227 1225 1222 1220 1218 1215 1211 1209 1206 1204 1201 1197 1193 1189 1185 1182 1179 1177 1175 1173 1171 1169 1166 1165
1357 1356 1354 1353 1351 1349 1348 1346 1345 1343 1341 1339 1337 1335 1334 1332 1331 1329 1327 1326 1323 1321 1319 1317 1316 1313 1311 1308 1306 1303 1301 1298 1296 1293 1292 1290 1288 1286 1285 1283 1281 1279 1276 1274 1271 1268 1266 1263 1261 1259 1256 1253 1250 1247 1244 1243 1241 1239 1236 1233 1231 1229 1226 1223 1221 1218 1216 1214 1211 1208 1205 1202 1199 1195 1191 1187 1183 1180 1177 1175 1173 1171 1169 1166 1164 1162
1356 1355 1353 1352 1350 1349 1347 1345 1344 1342 1340 1338 1336 1334 1333 1331 1330 1328 1326 1324 1322 1320 1318 1316 1314 1312 1310 1307 1305 1303 1301 1298 1295 1293 1291 1288 1286 1284 1282 1281 1278 1276 1274 1271 1269 1266 1263 1261 1259 1257 1255 1253 1250 1246 1243 1241 1240 1238 1235 1232 1230 1227 1224 1221 1219 1217 1215 1212 1209 1207 1205 1202 1199 1194 1190 1185 1181 1178 1176 1173 1171 1169 1167 1165 1162 1160
1356 1354 1352 1351 1349 1348 1346 1344 1343 1341 1339 1337 1335 1333 1331 1330 1328 1327 1325 1323 1321 1319 1317 1315 1313 1311 1308 1306 1303 1301 1300 1297 1295 1292 1290 1287 1285 1283 1281 1278 1276 1274 1271 1269 1266 1264 1261 1259 1257 1255 1254 1251 1249 1246 1242 1240 1238 1236 1234 1232 1229 1227 1224 1220 1217 1215 1213 1211 1208 1205 1203 1201 1198 1195 1191 1186 1181 1178 1174 1171 1168 1166 1164 1162 1160 1157
1355 1353 1352 1350 1349 1347 1345 1344 1342 1340 1338 1336 1334 1332 1330 1328 1327 1325 1324 1322 1320 1318 1316 1314 1312 1310 1307 1305 1302 1300 1298 1296 1294 1291 1289 1287 1284 1282 1279 1277 1275 1272 1269 1266 1264 1261 1259 1256 1254 1252 1251 1250 1248 1245 1242 1239 1237 1235 1233 1231 1229 1226 1223 1220 1216 1214 1212 1209 1206 1204 1201 1199 1196 1194 1191 1187 1183 1178 1174 1170 1167 1164 1161 1159 1157 1155
1353 1352 1351 1349 1348 1346 1345 1343 1341 1339 1337 1336 1333 1331 1329 1327 1326 1324 1322 1321 1319 1317 1315 1313 1311 1309 1306 1304 1301 1300 1297 1295 1293 1290 1288 1286 1283 1281 1279 1276 1274 1271 1269 1266 1262 1260 1257 1254 1251 1248 1247 1248 1247 1246 1243 1240 1237 1234 1231 1229 1227 1225 1222 1219 1216 1213 1211 1208 1205 1202 1200 1197 1195 1193 1191 1187 1183 1179 1174 1170 1166 1162 1160 1157 1155 1152